Year,Month,Day,Hour,Minute,Value (Times are PST for temperature in C)
2015,04,28,00,00,16.10
2015,04,28,00,01,16.00
2015,04,28,00,02,16.00
2015,04,28,00,03,16.00
2015,04,28,00,04,16.00
2015,04,28,00,05,16.00
2015,04,28,00,06,16.00
2015,04,28,00,07,16.00
2015,04,28,00,08,16.00
2015,04,28,00,09,16.00
2015,04,28,00,10,16.00
2015,04,28,00,11,16.00
2015,04,28,00,12,16.00
2015,04,28,00,13,15.90
2015,04,28,00,14,16.00
2015,04,28,00,15,16.00
2015,04,28,00,16,16.00
2015,04,28,00,17,15.90
2015,04,28,00,18,15.90
2015,04,28,00,19,15.90
2015,04,28,00,20,15.80
2015,04,28,00,21,15.80
2015,04,28,00,22,15.80
2015,04,28,00,23,15.70
2015,04,28,00,24,15.70
2015,04,28,00,25,15.70
2015,04,28,00,26,15.60
2015,04,28,00,27,15.60
2015,04,28,00,28,15.60
2015,04,28,00,29,15.60
2015,04,28,00,30,15.60
2015,04,28,00,31,15.60
2015,04,28,00,32,15.60
2015,04,28,00,33,15.70
2015,04,28,00,34,15.70
2015,04,28,00,35,15.70
2015,04,28,00,36,15.70
2015,04,28,00,37,15.70
2015,04,28,00,38,15.70
2015,04,28,00,39,15.70
2015,04,28,00,40,15.70
2015,04,28,00,41,15.70
2015,04,28,00,42,15.70
2015,04,28,00,43,15.70
2015,04,28,00,44,15.70
2015,04,28,00,45,15.60
2015,04,28,00,46,15.60
2015,04,28,00,47,15.60
2015,04,28,00,48,15.60
2015,04,28,00,49,15.60
2015,04,28,00,50,15.60
2015,04,28,00,51,15.60
2015,04,28,00,52,15.60
2015,04,28,00,53,15.50
2015,04,28,00,54,15.50
2015,04,28,00,55,15.50
2015,04,28,00,56,15.50
2015,04,28,00,57,15.50
2015,04,28,00,58,15.60
2015,04,28,00,59,15.70
2015,04,28,01,00,15.70
2015,04,28,01,01,15.80
2015,04,28,01,02,15.80
2015,04,28,01,03,15.90
2015,04,28,01,04,15.90
2015,04,28,01,05,15.90
2015,04,28,01,06,15.80
2015,04,28,01,07,15.80
2015,04,28,01,08,15.70
2015,04,28,01,09,15.70
2015,04,28,01,10,15.70
2015,04,28,01,11,15.70
2015,04,28,01,12,15.60
2015,04,28,01,13,15.60
2015,04,28,01,14,15.60
2015,04,28,01,15,15.60
2015,04,28,01,16,15.60
2015,04,28,01,17,15.60
2015,04,28,01,18,15.50
2015,04,28,01,19,15.50
2015,04,28,01,20,15.40
2015,04,28,01,21,15.40
2015,04,28,01,22,15.40
2015,04,28,01,23,15.40
2015,04,28,01,24,15.40
2015,04,28,01,25,15.40
2015,04,28,01,26,15.30
2015,04,28,01,27,15.30
2015,04,28,01,28,15.40
2015,04,28,01,29,15.40
2015,04,28,01,30,15.40
2015,04,28,01,31,15.40
2015,04,28,01,32,15.50
2015,04,28,01,33,15.40
2015,04,28,01,34,15.40
2015,04,28,01,35,15.40
2015,04,28,01,36,15.40
2015,04,28,01,37,15.40
2015,04,28,01,38,15.40
2015,04,28,01,39,15.40
2015,04,28,01,40,15.40
2015,04,28,01,41,15.40
2015,04,28,01,42,15.40
2015,04,28,01,43,15.40
2015,04,28,01,44,15.40
2015,04,28,01,45,15.40
2015,04,28,01,46,15.40
2015,04,28,01,47,15.40
2015,04,28,01,48,15.40
2015,04,28,01,49,15.40
2015,04,28,01,50,15.40
2015,04,28,01,51,15.40
2015,04,28,01,52,15.40
2015,04,28,01,53,15.40
2015,04,28,01,54,15.50
2015,04,28,01,55,15.50
2015,04,28,01,56,15.50
2015,04,28,01,57,15.50
2015,04,28,01,58,15.50
2015,04,28,01,59,15.50
2015,04,28,02,00,15.50
2015,04,28,02,01,15.50
2015,04,28,02,02,15.40
2015,04,28,02,03,15.40
2015,04,28,02,04,15.40
2015,04,28,02,05,15.40
2015,04,28,02,06,15.30
2015,04,28,02,07,15.30
2015,04,28,02,08,15.30
2015,04,28,02,09,15.30
2015,04,28,02,10,15.20
2015,04,28,02,11,15.20
2015,04,28,02,12,15.10
2015,04,28,02,13,15.00
2015,04,28,02,14,15.00
2015,04,28,02,15,15.00
2015,04,28,02,16,15.00
2015,04,28,02,17,15.00
2015,04,28,02,18,15.00
2015,04,28,02,19,15.00
2015,04,28,02,20,15.00
2015,04,28,02,21,15.00
2015,04,28,02,22,15.00
2015,04,28,02,23,15.00
2015,04,28,02,24,15.00
2015,04,28,02,25,15.00
2015,04,28,02,26,15.00
2015,04,28,02,27,15.00
2015,04,28,02,28,15.00
2015,04,28,02,29,14.90
2015,04,28,02,30,14.90
2015,04,28,02,31,14.90
2015,04,28,02,32,14.90
2015,04,28,02,33,14.80
2015,04,28,02,34,14.90
2015,04,28,02,35,14.90
2015,04,28,02,36,15.00
2015,04,28,02,37,15.00
2015,04,28,02,38,15.00
2015,04,28,02,39,15.00
2015,04,28,02,40,15.00
2015,04,28,02,41,15.00
2015,04,28,02,42,15.00
2015,04,28,02,43,15.00
2015,04,28,02,44,14.90
2015,04,28,02,45,14.90
2015,04,28,02,46,14.80
2015,04,28,02,47,14.80
2015,04,28,02,48,14.80
2015,04,28,02,49,14.70
2015,04,28,02,50,14.70
2015,04,28,02,51,14.70
2015,04,28,02,52,14.70
2015,04,28,02,53,14.60
2015,04,28,02,54,14.60
2015,04,28,02,55,14.60
2015,04,28,02,56,14.60
2015,04,28,02,57,14.60
2015,04,28,02,58,14.50
2015,04,28,02,59,14.50
2015,04,28,03,00,14.50
2015,04,28,03,01,14.40
2015,04,28,03,02,14.50
2015,04,28,03,03,14.50
2015,04,28,03,04,14.50
2015,04,28,03,05,14.50
2015,04,28,03,06,14.60
2015,04,28,03,07,14.60
2015,04,28,03,08,14.60
2015,04,28,03,09,14.60
2015,04,28,03,10,14.60
2015,04,28,03,11,14.50
2015,04,28,03,12,14.50
2015,04,28,03,13,14.40
2015,04,28,03,14,14.40
2015,04,28,03,15,14.30
2015,04,28,03,16,14.30
2015,04,28,03,17,14.30
2015,04,28,03,18,14.30
2015,04,28,03,19,14.20
2015,04,28,03,20,14.20
2015,04,28,03,21,14.20
2015,04,28,03,22,14.20
2015,04,28,03,23,14.20
2015,04,28,03,24,14.20
2015,04,28,03,25,14.20
2015,04,28,03,26,14.20
2015,04,28,03,27,14.20
2015,04,28,03,28,14.20
2015,04,28,03,29,14.20
2015,04,28,03,30,14.30
2015,04,28,03,31,14.30
2015,04,28,03,32,14.20
2015,04,28,03,33,14.20
2015,04,28,03,34,14.20
2015,04,28,03,35,14.20
2015,04,28,03,36,14.20
2015,04,28,03,37,14.30
2015,04,28,03,38,14.30
2015,04,28,03,39,14.30
2015,04,28,03,40,14.30
2015,04,28,03,41,14.40
2015,04,28,03,42,14.40
2015,04,28,03,43,14.40
2015,04,28,03,44,14.40
2015,04,28,03,45,14.40
2015,04,28,03,46,14.50
2015,04,28,03,47,14.50
2015,04,28,03,48,14.50
2015,04,28,03,49,14.50
2015,04,28,03,50,14.50
2015,04,28,03,51,14.50
2015,04,28,03,52,14.50
2015,04,28,03,53,14.50
2015,04,28,03,54,14.50
2015,04,28,03,55,14.40
2015,04,28,03,56,14.50
2015,04,28,03,57,14.50
2015,04,28,03,58,14.60
2015,04,28,03,59,14.70
2015,04,28,04,00,14.80
2015,04,28,04,01,14.90
2015,04,28,04,02,15.00
2015,04,28,04,03,15.00
2015,04,28,04,04,15.00
2015,04,28,04,05,15.00
2015,04,28,04,06,15.00
2015,04,28,04,07,14.80
2015,04,28,04,08,14.70
2015,04,28,04,09,14.60
2015,04,28,04,10,14.60
2015,04,28,04,11,14.50
2015,04,28,04,12,14.50
2015,04,28,04,13,14.40
2015,04,28,04,14,14.40
2015,04,28,04,15,14.30
2015,04,28,04,16,14.20
2015,04,28,04,17,14.20
2015,04,28,04,18,14.20
2015,04,28,04,19,14.20
2015,04,28,04,20,14.30
2015,04,28,04,21,14.40
2015,04,28,04,22,14.60
2015,04,28,04,23,14.70
2015,04,28,04,24,14.80
2015,04,28,04,25,15.00
2015,04,28,04,26,15.00
2015,04,28,04,27,15.00
2015,04,28,04,28,15.00
2015,04,28,04,29,15.00
2015,04,28,04,30,15.00
2015,04,28,04,31,15.00
2015,04,28,04,32,14.90
2015,04,28,04,33,14.80
2015,04,28,04,34,14.70
2015,04,28,04,35,14.70
2015,04,28,04,36,14.70
2015,04,28,04,37,14.60
2015,04,28,04,38,14.60
2015,04,28,04,39,14.70
2015,04,28,04,40,14.70
2015,04,28,04,41,14.80
2015,04,28,04,42,14.80
2015,04,28,04,43,15.00
2015,04,28,04,44,15.00
2015,04,28,04,45,15.00
2015,04,28,04,46,15.00
2015,04,28,04,47,15.00
2015,04,28,04,48,15.00
2015,04,28,04,49,15.00
2015,04,28,04,50,15.00
2015,04,28,04,51,14.80
2015,04,28,04,52,14.70
2015,04,28,04,53,14.70
2015,04,28,04,54,14.60
2015,04,28,04,55,14.70
2015,04,28,04,56,14.70
2015,04,28,04,57,14.80
2015,04,28,04,58,14.80
2015,04,28,04,59,14.80
2015,04,28,05,00,14.90
2015,04,28,05,01,15.00
2015,04,28,05,02,15.00
2015,04,28,05,03,15.00
2015,04,28,05,04,15.20
2015,04,28,05,05,15.40
2015,04,28,05,06,15.50
2015,04,28,05,07,15.60
2015,04,28,05,08,15.70
2015,04,28,05,09,15.70
2015,04,28,05,10,15.60
2015,04,28,05,11,15.50
2015,04,28,05,12,15.50
2015,04,28,05,13,15.40
2015,04,28,05,14,15.30
2015,04,28,05,15,15.10
2015,04,28,05,16,15.00
2015,04,28,05,17,15.00
2015,04,28,05,18,15.00
2015,04,28,05,19,15.00
2015,04,28,05,20,15.00
2015,04,28,05,21,15.00
2015,04,28,05,22,15.00
2015,04,28,05,23,14.80
2015,04,28,05,24,14.70
2015,04,28,05,25,14.60
2015,04,28,05,26,14.50
2015,04,28,05,27,14.50
2015,04,28,05,28,14.50
2015,04,28,05,29,14.50
2015,04,28,05,30,14.60
2015,04,28,05,31,14.60
2015,04,28,05,32,14.70
2015,04,28,05,33,14.70
2015,04,28,05,34,14.80
2015,04,28,05,35,14.80
2015,04,28,05,36,14.80
2015,04,28,05,37,14.80
2015,04,28,05,38,14.90
2015,04,28,05,39,14.90
2015,04,28,05,40,15.00
2015,04,28,05,41,15.00
2015,04,28,05,42,15.00
2015,04,28,05,43,15.00
2015,04,28,05,44,15.00
2015,04,28,05,45,15.00
2015,04,28,05,46,15.00
2015,04,28,05,47,15.00
2015,04,28,05,48,15.00
2015,04,28,05,49,15.00
2015,04,28,05,50,14.90
2015,04,28,05,51,14.90
2015,04,28,05,52,14.90
2015,04,28,05,53,15.00
2015,04,28,05,54,15.00
2015,04,28,05,55,15.00
2015,04,28,05,56,14.90
2015,04,28,05,57,14.70
2015,04,28,05,58,14.60
2015,04,28,05,59,14.50
2015,04,28,06,00,14.50
2015,04,28,06,01,14.50
2015,04,28,06,02,14.70
2015,04,28,06,03,14.80
2015,04,28,06,04,14.90
2015,04,28,06,05,14.90
2015,04,28,06,06,15.00
2015,04,28,06,07,15.00
2015,04,28,06,08,15.00
2015,04,28,06,09,14.90
2015,04,28,06,10,15.00
2015,04,28,06,11,15.00
2015,04,28,06,12,15.00
2015,04,28,06,13,15.00
2015,04,28,06,14,14.80
2015,04,28,06,15,14.80
2015,04,28,06,16,14.80
2015,04,28,06,17,14.80
2015,04,28,06,18,14.80
2015,04,28,06,19,14.80
2015,04,28,06,20,14.90
2015,04,28,06,21,14.90
2015,04,28,06,22,15.00
2015,04,28,06,23,15.00
2015,04,28,06,24,15.00
2015,04,28,06,25,15.00
2015,04,28,06,26,15.20
2015,04,28,06,27,15.40
2015,04,28,06,28,15.50
2015,04,28,06,29,15.50
2015,04,28,06,30,15.60
2015,04,28,06,31,15.60
2015,04,28,06,32,15.80
2015,04,28,06,33,15.90
2015,04,28,06,34,16.00
2015,04,28,06,35,16.00
2015,04,28,06,36,15.90
2015,04,28,06,37,15.80
2015,04,28,06,38,15.70
2015,04,28,06,39,15.60
2015,04,28,06,40,15.60
2015,04,28,06,41,15.50
2015,04,28,06,42,15.40
2015,04,28,06,43,15.40
2015,04,28,06,44,15.40
2015,04,28,06,45,15.30
2015,04,28,06,46,15.30
2015,04,28,06,47,15.30
2015,04,28,06,48,15.30
2015,04,28,06,49,15.30
2015,04,28,06,50,15.30
2015,04,28,06,51,15.30
2015,04,28,06,52,15.30
2015,04,28,06,53,15.30
2015,04,28,06,54,15.30
2015,04,28,06,55,15.30
2015,04,28,06,56,15.30
2015,04,28,06,57,15.30
2015,04,28,06,58,15.30
2015,04,28,06,59,15.30
2015,04,28,07,00,15.40
2015,04,28,07,01,15.30
2015,04,28,07,02,15.30
2015,04,28,07,03,15.30
2015,04,28,07,04,15.20
2015,04,28,07,05,15.10
2015,04,28,07,06,15.00
2015,04,28,07,07,15.00
2015,04,28,07,08,15.00
2015,04,28,07,09,15.00
2015,04,28,07,10,15.00
2015,04,28,07,11,15.00
2015,04,28,07,12,15.00
2015,04,28,07,13,15.00
2015,04,28,07,14,15.00
2015,04,28,07,15,14.90
2015,04,28,07,16,14.90
2015,04,28,07,17,14.80
2015,04,28,07,18,14.80
2015,04,28,07,19,14.80
2015,04,28,07,20,14.80
2015,04,28,07,21,14.80
2015,04,28,07,22,14.80
2015,04,28,07,23,14.80
2015,04,28,07,24,14.70
2015,04,28,07,25,14.70
2015,04,28,07,26,14.80
2015,04,28,07,27,14.80
2015,04,28,07,28,14.70
2015,04,28,07,29,14.70
2015,04,28,07,30,14.80
2015,04,28,07,31,14.70
2015,04,28,07,32,14.70
2015,04,28,07,33,14.70
2015,04,28,07,34,14.70
2015,04,28,07,35,14.60
2015,04,28,07,36,14.60
2015,04,28,07,37,14.60
2015,04,28,07,38,14.60
2015,04,28,07,39,14.50
2015,04,28,07,40,14.50
2015,04,28,07,41,14.50
2015,04,28,07,42,14.50
2015,04,28,07,43,14.40
2015,04,28,07,44,14.40
2015,04,28,07,45,14.40
2015,04,28,07,46,14.40
2015,04,28,07,47,14.40
2015,04,28,07,48,14.30
2015,04,28,07,49,14.30
2015,04,28,07,50,14.20
2015,04,28,07,51,14.20
2015,04,28,07,52,14.10
2015,04,28,07,53,14.00
2015,04,28,07,54,13.80
2015,04,28,07,55,13.70
2015,04,28,07,56,13.70
2015,04,28,07,57,13.60
2015,04,28,07,58,13.60
2015,04,28,07,59,13.50
2015,04,28,08,00,13.50
2015,04,28,08,01,13.40
2015,04,28,08,02,13.40
2015,04,28,08,03,13.40
2015,04,28,08,04,13.40
2015,04,28,08,05,13.30
2015,04,28,08,06,13.30
2015,04,28,08,07,13.30
2015,04,28,08,08,13.30
2015,04,28,08,09,13.30
2015,04,28,08,10,13.20
2015,04,28,08,11,13.20
2015,04,28,08,12,13.20
2015,04,28,08,13,13.20
2015,04,28,08,14,13.20
2015,04,28,08,15,13.20
2015,04,28,08,16,13.20
2015,04,28,08,17,13.10
2015,04,28,08,18,13.10
2015,04,28,08,19,13.10
2015,04,28,08,20,13.10
2015,04,28,08,21,13.10
2015,04,28,08,22,13.00
2015,04,28,08,23,13.00
2015,04,28,08,24,12.90
2015,04,28,08,25,12.90
2015,04,28,08,26,12.90
2015,04,28,08,27,12.90
2015,04,28,08,28,12.80
2015,04,28,08,29,12.80
2015,04,28,08,30,12.80
2015,04,28,08,31,12.80
2015,04,28,08,32,12.80
2015,04,28,08,33,12.80
2015,04,28,08,34,12.80
2015,04,28,08,35,12.80
2015,04,28,08,36,12.80
2015,04,28,08,37,12.70
2015,04,28,08,38,12.70
2015,04,28,08,39,12.70
2015,04,28,08,40,12.70
2015,04,28,08,41,12.70
2015,04,28,08,42,12.70
2015,04,28,08,43,12.70
2015,04,28,08,44,12.70
2015,04,28,08,45,12.60
2015,04,28,08,46,12.60
2015,04,28,08,47,12.60
2015,04,28,08,48,12.60
2015,04,28,08,49,12.60
2015,04,28,08,50,12.60
2015,04,28,08,51,12.60
2015,04,28,08,52,12.60
2015,04,28,08,53,12.60
2015,04,28,08,54,12.60
2015,04,28,08,55,12.60
2015,04,28,08,56,12.60
2015,04,28,08,57,12.50
2015,04,28,08,58,12.50
2015,04,28,08,59,12.50
2015,04,28,09,00,12.50
2015,04,28,09,01,12.50
2015,04,28,09,02,12.50
2015,04,28,09,03,12.50
2015,04,28,09,04,12.50
2015,04,28,09,05,12.50
2015,04,28,09,06,12.50
2015,04,28,09,07,12.40
2015,04,28,09,08,12.40
2015,04,28,09,09,12.40
2015,04,28,09,10,12.40
2015,04,28,09,11,12.30
2015,04,28,09,12,12.30
2015,04,28,09,13,12.30
2015,04,28,09,14,12.30
2015,04,28,09,15,12.30
2015,04,28,09,16,12.30
2015,04,28,09,17,12.30
2015,04,28,09,18,12.20
2015,04,28,09,19,12.20
2015,04,28,09,20,12.20
2015,04,28,09,21,12.20
2015,04,28,09,22,12.20
2015,04,28,09,23,12.20
2015,04,28,09,24,12.20
2015,04,28,09,25,12.20
2015,04,28,09,26,12.10
2015,04,28,09,27,12.10
2015,04,28,09,28,12.10
2015,04,28,09,29,12.10
2015,04,28,09,30,12.10
2015,04,28,09,31,12.10
2015,04,28,09,32,12.10
2015,04,28,09,33,12.10
2015,04,28,09,34,12.00
2015,04,28,09,35,12.00
2015,04,28,09,36,12.00
2015,04,28,09,37,12.00
2015,04,28,09,38,12.00
2015,04,28,09,39,11.90
2015,04,28,09,40,11.90
2015,04,28,09,41,11.90
2015,04,28,09,42,11.90
2015,04,28,09,43,11.90
2015,04,28,09,44,11.90
2015,04,28,09,45,11.90
2015,04,28,09,46,11.90
2015,04,28,09,47,11.90
2015,04,28,09,48,11.80
2015,04,28,09,49,11.80
2015,04,28,09,50,11.80
2015,04,28,09,51,11.80
2015,04,28,09,52,11.80
2015,04,28,09,53,11.80
2015,04,28,09,54,11.80
2015,04,28,09,55,11.80
2015,04,28,09,56,11.80
2015,04,28,09,57,11.80
2015,04,28,09,58,11.80
2015,04,28,09,59,11.80
2015,04,28,10,00,11.80
2015,04,28,10,01,11.80
2015,04,28,10,02,11.70
2015,04,28,10,03,11.70
2015,04,28,10,04,11.70
2015,04,28,10,05,11.70
2015,04,28,10,06,11.70
2015,04,28,10,07,11.80
2015,04,28,10,08,11.80
2015,04,28,10,09,11.90
2015,04,28,10,10,11.90
2015,04,28,10,11,11.90
2015,04,28,10,12,12.00
2015,04,28,10,13,11.90
2015,04,28,10,14,11.90
2015,04,28,10,15,11.90
2015,04,28,10,16,11.90
2015,04,28,10,17,11.90
2015,04,28,10,18,11.90
2015,04,28,10,19,11.90
2015,04,28,10,20,11.90
2015,04,28,10,21,11.90
2015,04,28,10,22,12.00
2015,04,28,10,23,11.90
2015,04,28,10,24,11.90
2015,04,28,10,25,11.90
2015,04,28,10,26,11.90
2015,04,28,10,27,11.90
2015,04,28,10,28,11.90
2015,04,28,10,29,11.90
2015,04,28,10,30,12.00
2015,04,28,10,31,12.00
2015,04,28,10,32,12.00
2015,04,28,10,33,12.00
2015,04,28,10,34,12.00
2015,04,28,10,35,12.00
2015,04,28,10,36,12.00
2015,04,28,10,37,12.00
2015,04,28,10,38,12.00
2015,04,28,10,39,11.90
2015,04,28,10,40,11.90
2015,04,28,10,41,11.90
2015,04,28,10,42,11.80
2015,04,28,10,43,11.80
2015,04,28,10,44,11.70
2015,04,28,10,45,11.70
2015,04,28,10,46,11.60
2015,04,28,10,47,11.60
2015,04,28,10,48,11.60
2015,04,28,10,49,11.50
2015,04,28,10,50,11.50
2015,04,28,10,51,11.50
2015,04,28,10,52,11.50
2015,04,28,10,53,11.50
2015,04,28,10,54,11.60
2015,04,28,10,55,11.60
2015,04,28,10,56,11.60
2015,04,28,10,57,11.60
2015,04,28,10,58,11.60
2015,04,28,10,59,11.70
2015,04,28,11,00,11.70
2015,04,28,11,01,11.70
2015,04,28,11,02,11.70
2015,04,28,11,03,11.70
2015,04,28,11,04,11.70
2015,04,28,11,05,11.70
2015,04,28,11,06,11.70
2015,04,28,11,07,11.80
2015,04,28,11,08,11.80
2015,04,28,11,09,11.80
2015,04,28,11,10,11.80
2015,04,28,11,11,11.90
2015,04,28,11,12,11.90
2015,04,28,11,13,12.00
2015,04,28,11,14,12.10
2015,04,28,11,15,12.20
2015,04,28,11,16,12.30
2015,04,28,11,17,12.30
2015,04,28,11,18,12.30
2015,04,28,11,19,12.20
2015,04,28,11,20,12.00
2015,04,28,11,21,11.80
2015,04,28,11,22,11.60
2015,04,28,11,23,11.50
2015,04,28,11,24,11.40
2015,04,28,11,25,11.40
2015,04,28,11,26,11.30
2015,04,28,11,27,11.40
2015,04,28,11,28,11.40
2015,04,28,11,29,11.40
2015,04,28,11,30,11.50
2015,04,28,11,31,11.60
2015,04,28,11,32,11.70
2015,04,28,11,33,11.70
2015,04,28,11,34,11.80
2015,04,28,11,35,11.90
2015,04,28,11,36,11.90
2015,04,28,11,37,11.90
2015,04,28,11,38,12.00
2015,04,28,11,39,12.00
2015,04,28,11,40,12.10
2015,04,28,11,41,12.10
2015,04,28,11,42,12.00
2015,04,28,11,43,11.90
2015,04,28,11,44,11.90
2015,04,28,11,45,11.80
2015,04,28,11,46,11.80
2015,04,28,11,47,11.70
2015,04,28,11,48,11.50
2015,04,28,11,49,11.40
2015,04,28,11,50,11.30
2015,04,28,11,51,11.30
2015,04,28,11,52,11.30
2015,04,28,11,53,11.20
2015,04,28,11,54,11.20
2015,04,28,11,55,11.30
2015,04,28,11,56,11.30
2015,04,28,11,57,11.40
2015,04,28,11,58,11.40
2015,04,28,11,59,11.50
2015,04,28,12,00,11.60
2015,04,28,12,01,11.60
2015,04,28,12,02,11.60
2015,04,28,12,03,11.60
2015,04,28,12,04,11.50
2015,04,28,12,05,11.60
2015,04,28,12,06,11.70
2015,04,28,12,07,11.70
2015,04,28,12,08,11.60
2015,04,28,12,09,11.40
2015,04,28,12,10,11.30
2015,04,28,12,11,11.30
2015,04,28,12,12,11.30
2015,04,28,12,13,11.30
2015,04,28,12,14,11.30
2015,04,28,12,15,11.40
2015,04,28,12,16,11.40
2015,04,28,12,17,11.50
2015,04,28,12,18,11.50
2015,04,28,12,19,11.50
2015,04,28,12,20,11.60
2015,04,28,12,21,11.60
2015,04,28,12,22,11.70
2015,04,28,12,23,11.80
2015,04,28,12,24,11.90
2015,04,28,12,25,12.00
2015,04,28,12,26,12.10
2015,04,28,12,27,12.10
2015,04,28,12,28,12.10
2015,04,28,12,29,12.00
2015,04,28,12,30,11.90
2015,04,28,12,31,11.70
2015,04,28,12,32,11.60
2015,04,28,12,33,11.50
2015,04,28,12,34,11.50
2015,04,28,12,35,11.50
2015,04,28,12,36,11.50
2015,04,28,12,37,11.50
2015,04,28,12,38,11.50
2015,04,28,12,39,11.60
2015,04,28,12,40,11.60
2015,04,28,12,41,11.60
2015,04,28,12,42,11.60
2015,04,28,12,43,11.60
2015,04,28,12,44,11.60
2015,04,28,12,45,11.50
2015,04,28,12,46,11.50
2015,04,28,12,47,11.40
2015,04,28,12,48,11.50
2015,04,28,12,49,11.60
2015,04,28,12,50,11.60
2015,04,28,12,51,11.70
2015,04,28,12,52,11.80
2015,04,28,12,53,11.80
2015,04,28,12,54,11.90
2015,04,28,12,55,12.00
2015,04,28,12,56,12.10
2015,04,28,12,57,12.10
2015,04,28,12,58,12.20
2015,04,28,12,59,12.20
2015,04,28,13,00,12.30
2015,04,28,13,01,12.40
2015,04,28,13,02,12.50
2015,04,28,13,03,12.70
2015,04,28,13,04,12.80
2015,04,28,13,05,12.80
2015,04,28,13,06,12.90
2015,04,28,13,07,12.80
2015,04,28,13,08,12.70
2015,04,28,13,09,12.50
2015,04,28,13,10,12.40
2015,04,28,13,11,12.30
2015,04,28,13,12,12.20
2015,04,28,13,13,12.20
2015,04,28,13,14,12.20
2015,04,28,13,15,12.20
2015,04,28,13,16,12.20
2015,04,28,13,17,12.30
2015,04,28,13,18,12.30
2015,04,28,13,19,12.30
2015,04,28,13,20,12.30
2015,04,28,13,21,12.40
2015,04,28,13,22,12.40
2015,04,28,13,23,12.50
2015,04,28,13,24,12.40
2015,04,28,13,25,12.50
2015,04,28,13,26,12.60
2015,04,28,13,27,12.60
2015,04,28,13,28,12.60
2015,04,28,13,29,12.70
2015,04,28,13,30,12.80
2015,04,28,13,31,12.80
2015,04,28,13,32,12.80
2015,04,28,13,33,12.80
2015,04,28,13,34,12.80
2015,04,28,13,35,12.90
2015,04,28,13,36,12.90
2015,04,28,13,37,12.90
2015,04,28,13,38,12.80
2015,04,28,13,39,12.70
2015,04,28,13,40,12.70
2015,04,28,13,41,12.60
2015,04,28,13,42,12.60
2015,04,28,13,43,12.60
2015,04,28,13,44,12.70
2015,04,28,13,45,12.70
2015,04,28,13,46,12.70
2015,04,28,13,47,12.80
2015,04,28,13,48,12.80
2015,04,28,13,49,12.80
2015,04,28,13,50,12.70
2015,04,28,13,51,12.60
2015,04,28,13,52,12.50
2015,04,28,13,53,12.40
2015,04,28,13,54,12.30
2015,04,28,13,55,12.30
2015,04,28,13,56,12.20
2015,04,28,13,57,12.20
2015,04,28,13,58,12.20
2015,04,28,13,59,12.10
2015,04,28,14,00,12.10
2015,04,28,14,01,12.00
2015,04,28,14,02,12.00
2015,04,28,14,03,12.10
2015,04,28,14,04,12.10
2015,04,28,14,05,12.20
2015,04,28,14,06,12.20
2015,04,28,14,07,12.30
2015,04,28,14,08,12.50
2015,04,28,14,09,12.60
2015,04,28,14,10,12.70
2015,04,28,14,11,12.70
2015,04,28,14,12,12.70
2015,04,28,14,13,12.70
2015,04,28,14,14,12.70
2015,04,28,14,15,12.70
2015,04,28,14,16,12.70
2015,04,28,14,17,12.80
2015,04,28,14,18,12.90
2015,04,28,14,19,12.90
2015,04,28,14,20,12.90
2015,04,28,14,21,12.90
2015,04,28,14,22,12.80
2015,04,28,14,23,12.80
2015,04,28,14,24,12.70
2015,04,28,14,25,12.70
2015,04,28,14,26,12.70
2015,04,28,14,27,12.70
2015,04,28,14,28,12.70
2015,04,28,14,29,12.80
2015,04,28,14,30,12.80
2015,04,28,14,31,12.80
2015,04,28,14,32,12.80
2015,04,28,14,33,12.80
2015,04,28,14,34,12.80
2015,04,28,14,35,12.90
2015,04,28,14,36,12.80
2015,04,28,14,37,12.90
2015,04,28,14,38,12.90
2015,04,28,14,39,12.90
2015,04,28,14,40,12.80
2015,04,28,14,41,12.80
2015,04,28,14,42,12.80
2015,04,28,14,43,12.80
2015,04,28,14,44,12.80
2015,04,28,14,45,12.80
2015,04,28,14,46,12.80
2015,04,28,14,47,12.90
2015,04,28,14,48,12.90
2015,04,28,14,49,12.90
2015,04,28,14,50,12.90
2015,04,28,14,51,13.00
2015,04,28,14,52,13.00
2015,04,28,14,53,13.00
2015,04,28,14,54,12.90
2015,04,28,14,55,12.90
2015,04,28,14,56,12.90
2015,04,28,14,57,12.80
2015,04,28,14,58,12.80
2015,04,28,14,59,12.90
2015,04,28,15,00,13.00
2015,04,28,15,01,13.00
2015,04,28,15,02,13.00
2015,04,28,15,03,13.10
2015,04,28,15,04,13.10
2015,04,28,15,05,13.10
2015,04,28,15,06,13.10
2015,04,28,15,07,13.10
2015,04,28,15,08,13.10
2015,04,28,15,09,13.10
2015,04,28,15,10,13.30
2015,04,28,15,11,13.40
2015,04,28,15,12,13.40
2015,04,28,15,13,13.50
2015,04,28,15,14,13.60
2015,04,28,15,15,13.70
2015,04,28,15,16,13.70
2015,04,28,15,17,13.80
2015,04,28,15,18,13.80
2015,04,28,15,19,13.80
2015,04,28,15,20,13.70
2015,04,28,15,21,13.70
2015,04,28,15,22,13.70
2015,04,28,15,23,13.70
2015,04,28,15,24,13.70
2015,04,28,15,25,13.70
2015,04,28,15,26,13.70
2015,04,28,15,27,13.80
2015,04,28,15,28,13.70
2015,04,28,15,29,13.60
2015,04,28,15,30,13.50
2015,04,28,15,31,13.40
2015,04,28,15,32,13.20
2015,04,28,15,33,13.10
2015,04,28,15,34,13.00
2015,04,28,15,35,12.90
2015,04,28,15,36,12.90
2015,04,28,15,37,12.90
2015,04,28,15,38,13.00
2015,04,28,15,39,13.00
2015,04,28,15,40,13.10
2015,04,28,15,41,13.20
2015,04,28,15,42,13.20
2015,04,28,15,43,13.30
2015,04,28,15,44,13.30
2015,04,28,15,45,13.40
2015,04,28,15,46,13.40
2015,04,28,15,47,13.40
2015,04,28,15,48,13.50
2015,04,28,15,49,13.50
2015,04,28,15,50,13.60
2015,04,28,15,51,13.60
2015,04,28,15,52,13.60
2015,04,28,15,53,13.60
2015,04,28,15,54,13.50
2015,04,28,15,55,13.40
2015,04,28,15,56,13.40
2015,04,28,15,57,13.30
2015,04,28,15,58,13.30
2015,04,28,15,59,13.30
2015,04,28,16,00,13.30
2015,04,28,16,01,13.40
2015,04,28,16,02,13.50
2015,04,28,16,03,13.50
2015,04,28,16,04,13.60
2015,04,28,16,05,13.60
2015,04,28,16,06,13.60
2015,04,28,16,07,13.60
2015,04,28,16,08,13.60
2015,04,28,16,09,13.60
2015,04,28,16,10,13.60
2015,04,28,16,11,13.60
2015,04,28,16,12,13.70
2015,04,28,16,13,13.80
2015,04,28,16,14,13.80
2015,04,28,16,15,13.80
2015,04,28,16,16,13.80
2015,04,28,16,17,13.80
2015,04,28,16,18,13.90
2015,04,28,16,19,13.90
2015,04,28,16,20,14.00
2015,04,28,16,21,14.10
2015,04,28,16,22,14.20
2015,04,28,16,23,14.20
2015,04,28,16,24,14.30
2015,04,28,16,25,14.30
2015,04,28,16,26,14.40
2015,04,28,16,27,14.40
2015,04,28,16,28,14.50
2015,04,28,16,29,14.50
2015,04,28,16,30,14.50
2015,04,28,16,31,14.50
2015,04,28,16,32,14.50
2015,04,28,16,33,14.50
2015,04,28,16,34,14.50
2015,04,28,16,35,14.50
2015,04,28,16,36,14.60
2015,04,28,16,37,14.70
2015,04,28,16,38,14.80
2015,04,28,16,39,14.70
2015,04,28,16,40,14.80
2015,04,28,16,41,14.80
2015,04,28,16,42,14.80
2015,04,28,16,43,14.70
2015,04,28,16,44,14.60
2015,04,28,16,45,14.60
2015,04,28,16,46,14.70
2015,04,28,16,47,14.70
2015,04,28,16,48,14.80
2015,04,28,16,49,14.80
2015,04,28,16,50,14.80
2015,04,28,16,51,14.60
2015,04,28,16,52,14.40
2015,04,28,16,53,14.20
2015,04,28,16,54,14.00
2015,04,28,16,55,13.80
2015,04,28,16,56,13.70
2015,04,28,16,57,13.60
2015,04,28,16,58,13.50
2015,04,28,16,59,13.40
2015,04,28,17,00,13.40
2015,04,28,17,01,13.40
2015,04,28,17,02,13.40
2015,04,28,17,03,13.50
2015,04,28,17,04,13.60
2015,04,28,17,05,13.70
2015,04,28,17,06,13.90
2015,04,28,17,07,14.10
2015,04,28,17,08,14.20
2015,04,28,17,09,14.20
2015,04,28,17,10,14.30
2015,04,28,17,11,14.30
2015,04,28,17,12,14.30
2015,04,28,17,13,14.40
2015,04,28,17,14,14.40
2015,04,28,17,15,14.50
2015,04,28,17,16,14.50
2015,04,28,17,17,14.60
2015,04,28,17,18,14.50
2015,04,28,17,19,14.50